Orbital Elements at Epoch 2459200.5 (2020-Dec-17.0) TDB
Reference: JPL 37 (heliocentric ecliptic J2000)
Element | Value | Uncertainty (1-sigma) | Units |
e | .1211488258791524 | 3.2972e-08 | |
a | 3.050379140491888 | 1.4002e-08 | au |
q | 2.680829289135038 | 9.9355e-08 | au |
i | 3.130770555117347 | 4.0841e-06 | deg |
node | 236.4914302682269 | 5.9317e-05 | deg |
peri | 201.8663215565292 | 6.1357e-05 | deg |
M | 176.1282775483872 | 1.6807e-05 | deg |
tp | 2458248.458789941622 (2018-May-09.95878994) | 8.8184e-05 | TDB |
period | 1945.938723705838 5.33 | 1.3398e-05 3.668e-08 | d yr |
n | .1850006866169031 | 1.2738e-09 | deg/d |
Q | 3.419928991848739 | 1.5698e-08 | au |
|
| | Orbit Determination Parameters
Additional Information
|